FENGYUN 1C DEB

Satellite information

Favourite Embed

Satellite Type and Status

DEBRISIN ORBIT

Key statistics

Satellite FENGYUN 1C DEB at a glance.

Uptime

9495

Days in orbit

Revolutions

≈ 14.5

Per day

Orbit

SSO

Sun Synchronous Orbit

Inclination

98.2

Latest

Satellite identification and parameters

Extended collection of information and parameters for FENGYUN 1C DEB.

Object identification

Identified? True

Debris? True

Object name: FENGYUN 1C DEB

International designator: 1999-025DAU

Object number (NORAD): 32432

Object ID (CCSDS): 32432

Country: PEOPLES REPUBLIC OF CHINA (PRC)

Current information (Y/N): Y

RCS size: SMALL

Orbital parameters

Period: 99.393 minutes

Inclination: 98.1903 deg

SMA: 7107.727 km

Apoapsis: 858.53 km

Periapsis: 600.654 km

RAAN: 170.0941 deg

Eccentricy: 0.0181405

Argument of periapsis: 258.047 deg

Mean anomaly: 100.0337 deg

Mean motion: 14.48794108 rev/day

Mean motion (dot): 0.00005921 rev/day2

B* drag term: 0.0012825 1/REarth

Two-line elements (TLE)

Creation date: May 8, 2025, 3:01 a.m.

Reference frame: TEME

Reference center: EARTH

Epoch: May 7, 2025, 8:18 p.m. UTC

TLE line 0: 0 FENGYUN 1C DEB

TLE line 1: 1 32432U 99025DAU 25127.84616178 .00005921 00000-0 12825-2 0 9994

TLE line 2: 2 32432 98.1903 170.0941 0181405 258.0470 100.0337 14.48794108675225

Live tracking on map

Real-time ground track for satellite FENGYUN 1C DEB.

In-orbit conjunctions

A list of the most updated potential collisions computed for object FENGYUN 1C DEB.

Target Orbit TCA Probability of collision Miss distance Type
FENGYUN 1C DEB SSO 2024-11-14 13:28:05 0.000336987 912.0 (m) DEBRIS
SL-14 R/B LEO 2024-07-16 14:43:50 0.0002218309 238.0 (m) ROCKET BODY

Associated space launch

Chinese polar orbiting meteorological satellite

FENGYUN 1C DEB was lifted into orbit during the mission ‘Long March 4B | Feng Yun 1C’, on board a Long March 4B space rocket.

The launch took place on May 10, 1999, 1:33 a.m. from Launch Complex 7.

For more information about the launch, click the button.

Launch to space Long March 4B | Feng Yun 1C
Long March 4B | Feng Yun 1C

Agency: N/A

Status: Launch Successful

Launch date: May 10, 1999, 1:33 a.m. UTC

Rocket: Long March 4B

Launch pad: Launch Complex 7

Location: Taiyuan Satellite Launch Center, People's Republic of China

...

Latest news about this satellite

There are no fresh news available about this satellite. Check back as we update our databases every day.


Newsletter sign-up

Weekly statistics, charts and insights to help you stay on top of the space industry.